GW4746 Weather Reports


time (UTC)temp
C
wind
direction
speed
KPH
gust
KPH
rain 1hr
cm
rain 24hr
cm
rain mn
cm
humidity
%
barometer
mb
20260507093020 10 11 0.0 3.2 0.00 0.00 0.00 82 1020.0
20260507091528 10 67 0.0 1.6 0.00 0.00 0.00 81 1020.0
20260507090025 11 44 0.0 1.6 0.00 0.00 0.00 80 1019.7
20260507084525 11 86 0.0 3.2 0.00 0.00 0.00 79 1019.7
20260507083017 11 74 1.6 6.4 0.00 0.00 0.00 79 1019.3
20260507081518 11 114 0.0 6.4 0.00 0.00 0.00 79 1019.3
20260507080022 11 85 1.6 4.8 0.00 0.00 0.00 79 1019.3
20260507074526 11 72 0.0 3.2 0.00 0.00 0.00 79 1019.2
20260507073027 12 76 0.0 1.6 0.00 0.00 0.00 79 1019.2
20260507071520 12 103 0.0 4.8 0.00 0.00 0.00 78 1019.3
20260507070009 12 68 1.6 4.8 0.00 0.00 0.00 78 1019.1
20260507064512 12 116 0.0 1.6 0.00 0.00 0.00 77 1019.0
20260507061516 12 92 1.6 3.2 0.00 0.00 0.00 75 1018.5
20260507060021 12 75 0.0 3.2 0.00 0.00 0.00 74 1018.3
20260507054504 12 94 1.6 12.9 0.00 0.00 0.00 73 1017.9
20260507053009 13 82 1.6 4.8 0.00 0.00 0.00 73 1017.8
20260507051514 13 79 1.6 6.4 0.00 0.00 0.00 72 1017.7
20260507050026 13 91 1.6 8.0 0.00 0.00 0.00 72 1017.5
20260507044519 13 122 3.2 6.4 0.00 0.00 0.00 71 1017.2
20260507043022 13 91 1.6 8.0 0.00 0.00 0.00 70 1017.1
20260507041506 13 86 1.6 3.2 0.00 0.00 0.00 69 1017.1
20260507040026 13 79 0.0 4.8 0.00 0.00 0.00 69 1017.2
20260507034521 13 84 1.6 3.2 0.00 0.00 0.00 68 1017.2
20260507033027 14 93 1.6 4.8 0.00 0.00 0.00 67 1016.8
20260507031537 14 107 1.6 6.4 0.00 0.00 0.00 66 1016.5
20260507030010 14 77 1.6 4.8 0.00 0.00 0.00 65 1016.5
20260507024512 15 89 1.6 4.8 0.00 0.00 0.00 64 1016.2
20260507023020 15 89 0.0 4.8 0.00 0.00 0.00 63 1016.1
20260507021522 15 80 1.6 6.4 0.00 0.00 0.00 62 1016.0
20260507020026 16 102 1.6 4.8 0.00 0.00 0.00 61 1015.8
20260507014512 16 94 1.6 12.9 0.00 0.00 0.00 60 1015.7
20260507013036 16 120 3.2 11.3 0.00 0.00 0.00 59 1015.4
20260507011529 17 110 4.8 9.7 0.00 0.00 0.00 56 1015.2
20260507010025 17 84 4.8 11.3 0.00 0.00 0.00 55 1015.1
20260507004525 18 88 1.6 11.3 0.00 0.00 0.00 54 1015.1
20260507003014 18 83 1.6 9.7 0.00 0.00 0.00 52 1014.9
20260507001525 19 341 3.2 9.7 0.00 0.00 0.00 51 1014.7
20260507000020 19 105 3.2 8.0 0.00 0.00 0.00 51 1014.7
20260506234526 20 39 1.6 8.0 0.00 0.00 0.00 51 1014.7
20260506233028 20 47 1.6 6.4 0.00 0.00 0.00 51 1014.7
20260506231513 20 337 3.2 9.7 0.00 0.00 0.00 50 1014.7
20260506230018 20 68 1.6 12.9 0.00 0.00 0.00 51 1014.5
20260506224520 20 4 3.2 11.3 0.00 0.00 0.00 49 1014.3
20260506223026 20 328 4.8 9.7 0.00 0.00 0.00 48 1014.1
20260506221526 20 32 3.2 14.5 0.00 0.00 0.00 49 1014.1
20260506220016 20 42 4.8 9.7 0.00 0.00 0.00 46 1014.0
20260506214518 20 276 1.6 11.3 0.00 0.00 0.00 48 1014.0
20260506213004 20 328 1.6 9.7 0.00 0.00 0.00 49 1014.0
20260506211512 21 323 3.2 6.4 0.00 0.00 0.00 46 1014.1
20260506210017 21 83 3.2 8.0 0.00 0.00 0.00 47 1014.2
20260506204518 21 133 3.2 9.7 0.00 0.00 0.00 46 1014.1
20260506203019 21 110 1.6 8.0 0.00 0.00 0.00 45 1014.2
20260506201508 21 60 1.6 12.9 0.00 0.00 0.00 47 1014.4
20260506200008 20 327 3.2 8.0 0.00 0.00 0.00 48 1014.6
20260506194514 20 72 1.6 6.4 0.00 0.00 0.00 49 1014.6
20260506193020 20 4 3.2 6.4 0.00 0.00 0.00 48 1014.8
20260506191518 19 21 1.6 8.0 0.00 0.00 0.00 51 1015.0
20260506190006 18 75 3.2 11.3 0.00 0.00 0.00 52 1015.2
20260506184508 18 350 3.2 9.7 0.00 0.00 0.00 53 1015.5
20260506183016 17 91 3.2 8.0 0.00 0.00 0.00 54 1015.9
20260506181522 17 345 3.2 11.3 0.00 0.00 0.00 56 1016.0
20260506180028 16 349 3.2 11.3 0.00 0.00 0.00 58 1016.0
20260506174510 15 359 6.4 14.5 0.00 0.00 0.00 59 1016.2
20260506173018 16 28 3.2 11.3 0.00 0.00 0.00 59 1016.4
20260506171519 15 46 4.8 11.3 0.00 0.00 0.00 60 1016.1
20260506170022 15 337 6.4 11.3 0.00 0.00 0.00 62 1016.2
20260506164524 13 323 6.4 14.5 0.00 0.00 0.00 68 1016.4
20260506163014 13 283 3.2 9.7 0.00 0.00 0.00 70 1016.2
20260506161515 12 338 3.2 12.9 0.00 0.00 0.00 74 1016.0
20260506160021 11 13 3.2 9.7 0.00 0.00 0.00 76 1016.1
20260506154526 11 70 3.2 8.0 0.00 0.00 0.00 76 1016.0
20260506153026 11 321 4.8 16.1 0.00 0.00 0.00 78 1015.9
20260506151528 11 307 6.4 19.3 0.00 0.00 0.00 79 1015.8
20260506150015 10 288 6.4 14.5 0.00 0.00 0.00 79 1015.9
20260506144518 11 34 3.2 8.0 0.00 0.00 0.00 79 1015.9
20260506143026 11 96 1.6 8.0 0.00 0.00 0.00 79 1016.2
20260506141530 10 131 1.6 9.7 0.00 0.00 0.00 79 1015.9
20260506140029 10 49 0.0 8.0 0.00 0.00 0.00 80 1016.1
20260506134516 10 146 0.0 8.0 0.00 0.00 0.00 80 1016.1
20260506133019 10 88 1.6 8.0 0.00 0.00 0.00 80 1015.7
20260506131530 10 9 3.2 8.0 0.00 0.00 0.00 79 1015.9
20260506130008 10 67 3.2 8.0 0.00 0.00 0.00 79 1015.3
20260506124514 10 120 3.2 6.4 0.00 0.00 0.00 79 1015.4
20260506123018 10 87 1.6 4.8 0.00 0.00 0.00 79 1015.3
20260506121520 10 84 0.0 8.0 0.00 0.00 0.00 79 1014.3
20260506120027 11 287 3.2 12.9 0.00 0.00 0.00 79 1013.8
20260506114508 11 345 4.8 9.7 0.00 0.00 0.00 79 1013.4
20260506113014 11 241 1.6 11.3 0.00 0.00 0.00 79 1013.1
20260506111522 11 354 4.8 11.3 0.00 0.00 0.00 79 1013.4
20260506110024 11 318 1.6 11.3 0.00 0.00 0.00 79 1013.3
20260506104528 11 332 3.2 12.9 0.00 0.00 0.00 79 1013.1
20260506103011 11 36 1.6 8.0 0.00 0.00 0.00 80 1013.2
20260506101527 11 333 3.2 9.7 0.00 0.00 0.00 80 1013.2
20260506100022 11 18 1.6 6.4 0.00 0.00 0.00 80 1012.8
20260506094525 11 317 0.0 6.4 0.00 0.00 0.00 80 1012.4